Weather History for KO69 - August, 2014

Change the Weather History Date:

Monday, August 25, 2014

  Actual Average (KAPC) Record (KAPC)
Temperature  
Mean Temperature 67 °F 66 °F  
Max Temperature 75 °F 81 °F 98 °F (1999)
Min Temperature 59 °F 52 °F 47 °F (2000)
Degree Days  
Heating Degree Days 0    
Month to date heating degree days  
Since 1 June heating degree days  
Since 1 July heating degree days  
Cooling Degree Days 2    
Month to date cooling degree days  
Year to date cooling degree days  
Since 1 June cooling degree days  
Growing Degree Days 17 (Base 50)    
Moisture  
Dew Point 55 °F    
Average Humidity 67    
Maximum Humidity 88    
Minimum Humidity 50    
Precipitation  
Precipitation 0.00 in - 0.07 in (1926)
Month to date precipitation  
Year to date precipitation  
Since 1 July precipitation  
Sea Level Pressure  
Sea Level Pressure 29.91 in    
Wind  
Wind Speed 7 mph (West)    
Max Wind Speed 12 mph    
Max Gust Speed 18 mph    
Visibility 10 miles    
Events      
T = Trace of Precipitation, MM = Missing Value Source: NWS Daily Summary

Daily Weather History Graph

Daily Weather History Graph

Search for Another Location

Airport or City:

Trip Planner

Search our weather history database for the weather conditions in past years. The results will help you decide how hot, cold, wet, or windy it might be!

Date:

Astronomy

Aug. 25, 2014 Rise Set
Actual Time 6:33 AM PDT 7:50 PM PDT
Civil Twilight 6:06 AM PDT 8:17 PM PDT
Nautical Twilight 5:33 AM PDT 8:50 PM PDT
Astronomical Twilight 4:59 AM PDT 9:24 PM PDT
Moon 6:43 AM PDT (8/25) 7:44 PM PDT (8/25)
Length of Visible Light 14h 11m
Length of Day
13h 16m
New Moon, 0% of the Moon is Illuminated
Aug 25
New Moon
Sep 2
First Quarter
Sep 8
Full
Sep 15
Last Quarter
Sep 23
New

Hourly Weather History & Observations

Time (PDT) Temp. Dew Point Humidity Pressure Visibility Wind Dir Wind Speed Gust Speed Precip Events Conditions
12:15 PM 68.0 °F 55.4 °F 64% 29.92 in 10.0 mi SW 3.5 mph - N/A   Overcast
12:35 PM 69.8 °F 55.4 °F 60% 29.90 in 10.0 mi WSW 4.6 mph - N/A   Overcast
12:55 PM 71.6 °F 55.4 °F 57% 29.89 in 10.0 mi West 8.1 mph - N/A   Scattered Clouds
1:15 PM 71.6 °F 55.4 °F 57% 29.89 in 10.0 mi WSW 6.9 mph - N/A   Clear
1:35 PM 71.6 °F 55.4 °F 57% 29.90 in 10.0 mi WSW 5.8 mph - N/A   Clear
1:55 PM 73.4 °F 55.4 °F 53% 29.89 in 10.0 mi West 6.9 mph - N/A   Clear
2:15 PM 75.2 °F 55.4 °F 50% 29.89 in 10.0 mi WSW 6.9 mph - N/A   Clear
2:35 PM 73.4 °F 55.4 °F 53% 29.88 in 10.0 mi WSW 6.9 mph - N/A   Clear
2:55 PM 73.4 °F 55.4 °F 53% 29.88 in 10.0 mi WNW 6.9 mph 18.4 mph N/A   Clear
3:15 PM 75.2 °F 55.4 °F 50% 29.87 in 10.0 mi WNW 4.6 mph - N/A   Clear
3:35 PM 75.2 °F 55.4 °F 50% 29.87 in 10.0 mi West 6.9 mph - N/A   Clear
3:55 PM 75.2 °F 55.4 °F 50% 29.87 in 10.0 mi WSW 10.4 mph - N/A   Clear
4:15 PM 73.4 °F 55.4 °F 53% 29.87 in 10.0 mi West 9.2 mph - N/A   Clear
4:35 PM 73.4 °F 55.4 °F 53% 29.87 in 10.0 mi West 10.4 mph 16.1 mph N/A   Clear
4:55 PM 73.4 °F 55.4 °F 53% 29.88 in 10.0 mi West 8.1 mph - N/A   Clear
5:15 PM 73.4 °F 55.4 °F 53% 29.88 in 10.0 mi West 11.5 mph 16.1 mph N/A   Clear
5:35 PM 73.4 °F 55.4 °F 53% 29.88 in 10.0 mi West 10.4 mph 16.1 mph N/A   Clear
5:55 PM 71.6 °F 55.4 °F 57% 29.89 in 10.0 mi West 8.1 mph - N/A   Clear
6:15 PM 69.8 °F 55.4 °F 60% 29.89 in 10.0 mi West 9.2 mph - N/A   Clear
6:35 PM 68.0 °F 55.4 °F 64% 29.89 in 10.0 mi WNW 10.4 mph - N/A   Clear
6:55 PM 66.2 °F 55.4 °F 68% 29.90 in 10.0 mi West 8.1 mph - N/A   Clear
7:15 PM 66.2 °F 55.4 °F 68% 29.90 in 10.0 mi WNW 8.1 mph - N/A   Clear
7:35 PM 64.4 °F 55.4 °F 73% 29.91 in 10.0 mi WNW 10.4 mph - N/A   Clear
7:55 PM 62.6 °F 55.4 °F 77% 29.92 in 10.0 mi WNW 10.4 mph - N/A   Partly Cloudy
8:15 PM 60.8 °F 55.4 °F 82% 29.93 in 10.0 mi NW 4.6 mph - N/A   Mostly Cloudy
8:35 PM 60.8 °F 55.4 °F 82% 29.94 in 10.0 mi NW 5.8 mph - N/A   Overcast
8:55 PM 59.0 °F 55.4 °F 88% 29.94 in 10.0 mi NW 4.6 mph - N/A   Overcast
9:15 PM 59.0 °F 55.4 °F 88% 29.95 in 10.0 mi WNW 3.5 mph - N/A   Overcast
9:35 PM 60.8 °F 55.4 °F 82% 29.96 in 10.0 mi NW 5.8 mph - N/A   Overcast
9:55 PM 60.8 °F 55.4 °F 82% 29.97 in 10.0 mi NW 4.6 mph - N/A   Overcast
10:15 PM 59.0 °F 55.4 °F 88% 29.96 in 10.0 mi NW 4.6 mph - N/A   Overcast
10:35 PM 59.0 °F 55.4 °F 88% 29.97 in 5.0 mi NW 3.5 mph - N/A   Overcast
10:55 PM 59.0 °F 55.4 °F 88% 29.97 in 10.0 mi WNW 8.1 mph - N/A   Overcast
11:15 PM 59.0 °F 55.4 °F 88% 29.98 in 10.0 mi NW 3.5 mph - N/A   Overcast
11:35 PM 59.0 °F 55.4 °F 88% 29.98 in 10.0 mi West 5.8 mph - N/A   Overcast
11:55 PM 59.0 °F 55.4 °F 88% 29.98 in 10.0 mi NW 4.6 mph - N/A   Overcast